Dickinson, ND

7:04 AM MDT on May 24, 2017 (GMT -0600)
Dickinson Municipal

Weather History for KDIK - June, 2013

Change the Weather History Date:

Wednesday, June 12, 2013

  Actual Average Record
Temperature  
Mean Temperature 63 °F 61 °F  
Max Temperature 70 °F 74 °F 97 °F (1952)
Min Temperature 55 °F 48 °F 35 °F (1985)
Degree Days  
Heating Degree Days 2 5  
Month to date heating degree days 91 77  
Since 1 June heating degree days 91 77  
Since 1 July heating degree days 8521 8517  
Cooling Degree Days 0 1  
Month to date cooling degree days 2 12  
Year to date cooling degree days 11 22  
Since 1 June cooling degree days 2 12  
Growing Degree Days 12 (Base 50)    
Moisture  
Dew Point 54 °F    
Average Humidity 75    
Maximum Humidity 93    
Minimum Humidity 57    
Precipitation  
Precipitation 0.15 in 0.11 in 1.65 in (2011)
Month to date precipitation 0.99 1.25  
Year to date precipitation 8.08 6.36  
Sea Level Pressure  
Sea Level Pressure 30.07 in    
Wind  
Wind Speed 7 mph (East)    
Max Wind Speed 16 mph    
Max Gust Speed 20 mph    
Visibility 10 miles    
Events Rain    
T = Trace of Precipitation, MM = Missing Value Source: NWS Daily Summary

Daily Weather History Graph

Daily Weather History Graph

Search for Another Location

Airport or City:

Trip Planner

Search our weather history database for the weather conditions in past years. The results will help you decide how hot, cold, wet, or windy it might be!

Date:

Astronomy

Jun. 12, 2013 Rise Set
Actual Time 4:56 AM MDT 8:45 PM MDT
Civil Twilight 4:17 AM MDT 9:25 PM MDT
Nautical Twilight 3:23 AM MDT 10:18 PM MDT
Astronomical Twilight 2:06 AM MDT 11:37 PM MDT
Moon 8:49 AM MDT (6/12) 11:09 PM MDT (6/12)
Length of Visible Light 17h 08m
Length of Day
15h 49m
Waxing Crescent, 14% of the Moon is Illuminated
Jun 12
Waxing Crescent
Jun 16
First Quarter
Jun 23
Full
Jun 29
Last Quarter
Jul 8
New

Hourly Weather History & Observations

Time (MDT) Temp. Dew Point Humidity Pressure Visibility Wind Dir Wind Speed Gust Speed Precip Events Conditions
12:56 AM 57.9 °F 53.1 °F 84% 29.92 in 10.0 mi ENE 12.7 mph - 0.02 in Rain Light Rain
1:56 AM 57.0 °F 54.0 °F 89% 29.93 in 10.0 mi East 11.5 mph - 0.01 in Rain Light Rain
2:56 AM 57.0 °F 53.1 °F 87% 29.90 in 10.0 mi East 15.0 mph - 0.00 in Rain Light Rain
3:56 AM 57.0 °F 54.0 °F 89% 29.96 in 10.0 mi Calm Calm - 0.00 in Rain Light Rain
4:56 AM 57.0 °F 55.0 °F 93% 30.01 in 7.0 mi NNW 4.6 mph - 0.06 in Rain Light Rain
5:56 AM 57.0 °F 55.0 °F 93% 30.04 in 6.0 mi North 5.8 mph - 0.04 in Rain Light Rain
6:06 AM 55.4 °F 53.6 °F 94% 30.07 in 4.0 mi NNE 3.5 mph - 0.01 in Rain Rain
6:20 AM 57.2 °F 53.6 °F 88% 30.07 in 6.0 mi North 5.8 mph - 0.02 in Rain Light Rain
6:56 AM 55.9 °F 53.1 °F 90% 30.06 in 9.0 mi NNE 9.2 mph - 0.03 in Rain Light Rain
7:56 AM 55.9 °F 54.0 °F 93% 30.08 in 10.0 mi NE 9.2 mph - 0.00 in Rain Light Rain
8:24 AM 57.2 °F 53.6 °F 88% 30.09 in 10.0 mi NE 10.4 mph - 0.01 in Rain Light Rain
8:46 AM 57.2 °F 55.4 °F 94% 30.10 in 10.0 mi NE 8.1 mph - 0.01 in   Overcast
8:56 AM 57.9 °F 55.0 °F 90% 30.09 in 10.0 mi NE 9.2 mph - 0.01 in   Overcast
9:48 AM 60.8 °F 55.4 °F 82% 30.10 in 10.0 mi East 6.9 mph - N/A   Mostly Cloudy
9:56 AM 61.0 °F 55.0 °F 81% 30.09 in 10.0 mi ENE 8.1 mph - N/A   Mostly Cloudy
10:09 AM 60.8 °F 53.6 °F 77% 30.10 in 10.0 mi ENE 8.1 mph - N/A   Mostly Cloudy
10:34 AM 62.6 °F 53.6 °F 72% 30.11 in 10.0 mi ENE 8.1 mph - N/A   Mostly Cloudy
10:56 AM 63.0 °F 55.0 °F 75% 30.09 in 10.0 mi ENE 10.4 mph - N/A   Mostly Cloudy
11:20 AM 64.4 °F 53.6 °F 68% 30.12 in 10.0 mi Variable 5.8 mph - N/A   Scattered Clouds
11:35 AM 62.6 °F 53.6 °F 72% 30.12 in 10.0 mi ENE 6.9 mph - N/A   Mostly Cloudy
11:56 AM 64.9 °F 54.0 °F 68% 30.10 in 10.0 mi Variable 6.9 mph - N/A   Scattered Clouds
12:56 PM 66.0 °F 54.0 °F 65% 30.11 in 10.0 mi ESE 3.5 mph - N/A   Mostly Cloudy
1:14 PM 66.2 °F 53.6 °F 64% 30.13 in 10.0 mi East 5.8 mph - N/A   Mostly Cloudy
1:25 PM 68.0 °F 55.4 °F 64% 30.12 in 10.0 mi Variable 4.6 mph - N/A   Mostly Cloudy
1:32 PM 64.4 °F 53.6 °F 68% 30.12 in 10.0 mi ESE 4.6 mph - N/A   Mostly Cloudy
1:56 PM 66.9 °F 54.0 °F 63% 30.11 in 10.0 mi South 6.9 mph - N/A   Partly Cloudy
2:56 PM 66.9 °F 53.1 °F 61% 30.10 in 10.0 mi SE 6.9 mph - N/A   Partly Cloudy
3:56 PM 69.1 °F 53.1 °F 57% 30.08 in 10.0 mi East 3.5 mph - N/A   Scattered Clouds
4:56 PM 69.1 °F 53.1 °F 57% 30.08 in 10.0 mi South 3.5 mph - N/A   Partly Cloudy
5:56 PM 68.0 °F 53.1 °F 59% 30.07 in 10.0 mi SE 5.8 mph - N/A   Mostly Cloudy
6:56 PM 69.1 °F 53.1 °F 57% 30.07 in 10.0 mi SSE 5.8 mph - N/A   Clear
7:56 PM 64.0 °F 55.0 °F 73% 30.08 in 10.0 mi ESE 4.6 mph - N/A   Clear
8:56 PM 59.0 °F 54.0 °F 83% 30.08 in 10.0 mi East 8.1 mph - N/A   Clear
9:56 PM 57.9 °F 54.0 °F 87% 30.09 in 10.0 mi ESE 6.9 mph - N/A   Clear
10:56 PM 57.0 °F 52.0 °F 83% 30.12 in 10.0 mi SE 6.9 mph - N/A   Clear
11:56 PM 55.9 °F 52.0 °F 87% 30.13 in 10.0 mi SE 6.9 mph - N/A   Partly Cloudy